Year,Month,Day,Hour,Minute,Value (Times are PST for temperature in C)
2009,06,04,00,00,20.30
2009,06,04,00,01,20.30
2009,06,04,00,02,20.20
2009,06,04,00,03,20.20
2009,06,04,00,04,20.20
2009,06,04,00,05,20.20
2009,06,04,00,06,20.20
2009,06,04,00,07,20.20
2009,06,04,00,08,20.10
2009,06,04,00,09,20.10
2009,06,04,00,10,20.10
2009,06,04,00,11,19.90
2009,06,04,00,12,19.90
2009,06,04,00,13,19.90
2009,06,04,00,14,19.90
2009,06,04,00,15,19.90
2009,06,04,00,16,19.80
2009,06,04,00,17,19.80
2009,06,04,00,18,19.80
2009,06,04,00,19,19.80
2009,06,04,00,20,19.80
2009,06,04,00,21,19.80
2009,06,04,00,22,19.70
2009,06,04,00,23,19.70
2009,06,04,00,24,19.70
2009,06,04,00,25,19.70
2009,06,04,00,26,19.70
2009,06,04,00,27,19.70
2009,06,04,00,28,19.70
2009,06,04,00,29,19.70
2009,06,04,00,30,19.70
2009,06,04,00,31,19.70
2009,06,04,00,32,19.70
2009,06,04,00,33,19.60
2009,06,04,00,34,19.60
2009,06,04,00,35,19.60
2009,06,04,00,36,19.60
2009,06,04,00,37,19.60
2009,06,04,00,38,19.60
2009,06,04,00,39,19.60
2009,06,04,00,40,19.60
2009,06,04,00,41,19.60
2009,06,04,00,42,19.60
2009,06,04,00,43,19.60
2009,06,04,00,44,19.50
2009,06,04,00,45,19.50
2009,06,04,00,46,19.50
2009,06,04,00,47,19.50
2009,06,04,00,48,19.40
2009,06,04,00,49,19.40
2009,06,04,00,50,19.40
2009,06,04,00,51,19.30
2009,06,04,00,52,19.30
2009,06,04,00,53,19.30
2009,06,04,00,54,19.20
2009,06,04,00,55,19.20
2009,06,04,00,56,19.10
2009,06,04,00,57,19.10
2009,06,04,00,58,19.10
2009,06,04,00,59,19.10
2009,06,04,01,00,19.10
2009,06,04,01,01,18.90
2009,06,04,01,02,18.90
2009,06,04,01,03,18.90
2009,06,04,01,04,18.90
2009,06,04,01,05,18.90
2009,06,04,01,06,18.90
2009,06,04,01,07,18.80
2009,06,04,01,08,18.80
2009,06,04,01,09,18.80
2009,06,04,01,10,18.80
2009,06,04,01,11,18.70
2009,06,04,01,12,18.70
2009,06,04,01,13,18.70
2009,06,04,01,14,18.60
2009,06,04,01,15,18.60
2009,06,04,01,16,18.60
2009,06,04,01,17,18.50
2009,06,04,01,18,18.50
2009,06,04,01,19,18.50
2009,06,04,01,20,18.50
2009,06,04,01,21,18.40
2009,06,04,01,22,18.40
2009,06,04,01,23,18.40
2009,06,04,01,24,18.30
2009,06,04,01,25,18.30
2009,06,04,01,26,18.30
2009,06,04,01,27,18.30
2009,06,04,01,28,18.20
2009,06,04,01,29,18.20
2009,06,04,01,30,18.20
2009,06,04,01,31,18.20
2009,06,04,01,32,18.20
2009,06,04,01,33,18.20
2009,06,04,01,34,18.10
2009,06,04,01,35,18.10
2009,06,04,01,36,18.10
2009,06,04,01,37,17.90
2009,06,04,01,38,17.90
2009,06,04,01,39,17.90
2009,06,04,01,40,17.90
2009,06,04,01,41,17.90
2009,06,04,01,42,17.90
2009,06,04,01,43,17.90
2009,06,04,01,44,17.90
2009,06,04,01,45,17.90
2009,06,04,01,46,18.00
2009,06,04,01,47,18.10
2009,06,04,01,48,18.10
2009,06,04,01,49,18.20
2009,06,04,01,50,18.30
2009,06,04,01,51,18.30
2009,06,04,01,52,18.40
2009,06,04,01,53,18.40
2009,06,04,01,54,18.40
2009,06,04,01,55,18.40
2009,06,04,01,56,18.30
2009,06,04,01,57,18.30
2009,06,04,01,58,18.30
2009,06,04,01,59,18.30
2009,06,04,02,00,18.30
2009,06,04,02,01,18.30
2009,06,04,02,02,18.40
2009,06,04,02,03,18.40
2009,06,04,02,04,18.50
2009,06,04,02,05,18.50
2009,06,04,02,06,18.50
2009,06,04,02,07,18.50
2009,06,04,02,08,18.50
2009,06,04,02,09,18.50
2009,06,04,02,10,18.50
2009,06,04,02,11,18.50
2009,06,04,02,12,18.50
2009,06,04,02,13,18.50
2009,06,04,02,14,18.50
2009,06,04,02,15,18.50
2009,06,04,02,16,18.50
2009,06,04,02,17,18.40
2009,06,04,02,18,18.40
2009,06,04,02,19,18.40
2009,06,04,02,20,18.40
2009,06,04,02,21,18.30
2009,06,04,02,22,18.30
2009,06,04,02,23,18.20
2009,06,04,02,24,18.20
2009,06,04,02,25,18.20
2009,06,04,02,26,18.10
2009,06,04,02,27,18.00
2009,06,04,02,28,17.90
2009,06,04,02,29,17.90
2009,06,04,02,30,17.90
2009,06,04,02,31,17.80
2009,06,04,02,32,17.70
2009,06,04,02,33,17.70
2009,06,04,02,34,17.60
2009,06,04,02,35,17.50
2009,06,04,02,36,17.50
2009,06,04,02,37,17.40
2009,06,04,02,38,17.30
2009,06,04,02,39,17.30
2009,06,04,02,40,17.30
2009,06,04,02,41,17.20
2009,06,04,02,42,17.20
2009,06,04,02,43,17.10
2009,06,04,02,44,17.10
2009,06,04,02,45,17.10
2009,06,04,02,46,17.00
2009,06,04,02,47,17.00
2009,06,04,02,48,16.90
2009,06,04,02,49,16.90
2009,06,04,02,50,16.80
2009,06,04,02,51,16.70
2009,06,04,02,52,16.70
2009,06,04,02,53,16.60
2009,06,04,02,54,16.50
2009,06,04,02,55,16.40
2009,06,04,02,56,16.40
2009,06,04,02,57,16.40
2009,06,04,02,58,16.30
2009,06,04,02,59,16.30
2009,06,04,03,00,16.20
2009,06,04,03,01,16.20
2009,06,04,03,02,16.10
2009,06,04,03,03,16.10
2009,06,04,03,04,16.00
2009,06,04,03,05,15.90
2009,06,04,03,06,15.80
2009,06,04,03,07,15.80
2009,06,04,03,08,15.70
2009,06,04,03,09,15.60
2009,06,04,03,10,15.50
2009,06,04,03,11,15.50
2009,06,04,03,12,15.50
2009,06,04,03,13,15.40
2009,06,04,03,14,15.40
2009,06,04,03,15,15.30
2009,06,04,03,16,15.30
2009,06,04,03,17,15.30
2009,06,04,03,18,15.20
2009,06,04,03,19,15.20
2009,06,04,03,20,15.20
2009,06,04,03,21,15.10
2009,06,04,03,22,15.10
2009,06,04,03,23,15.10
2009,06,04,03,24,15.10
2009,06,04,03,25,15.00
2009,06,04,03,26,15.00
2009,06,04,03,27,15.00
2009,06,04,03,28,15.00
2009,06,04,03,29,15.00
2009,06,04,03,30,15.00
2009,06,04,03,31,15.00
2009,06,04,03,32,15.00
2009,06,04,03,33,14.90
2009,06,04,03,34,14.90
2009,06,04,03,35,14.90
2009,06,04,03,36,14.90
2009,06,04,03,37,14.90
2009,06,04,03,38,14.80
2009,06,04,03,39,14.80
2009,06,04,03,40,14.80
2009,06,04,03,41,14.80
2009,06,04,03,42,14.80
2009,06,04,03,43,14.80
2009,06,04,03,44,14.80
2009,06,04,03,45,14.80
2009,06,04,03,46,14.80
2009,06,04,03,47,14.80
2009,06,04,03,48,14.80
2009,06,04,03,49,14.80
2009,06,04,03,50,14.80
2009,06,04,03,51,14.80
2009,06,04,03,52,14.80
2009,06,04,03,53,14.80
2009,06,04,03,54,14.80
2009,06,04,03,55,14.80
2009,06,04,03,56,14.80
2009,06,04,03,57,14.80
2009,06,04,03,58,14.80
2009,06,04,03,59,14.80
2009,06,04,04,00,14.80
2009,06,04,04,01,14.80
2009,06,04,04,02,14.80
2009,06,04,04,03,14.80
2009,06,04,04,04,14.80
2009,06,04,04,05,14.80
2009,06,04,04,06,14.80
2009,06,04,04,07,14.80
2009,06,04,04,08,14.80
2009,06,04,04,09,14.80
2009,06,04,04,10,14.70
2009,06,04,04,11,14.70
2009,06,04,04,12,14.70
2009,06,04,04,13,14.70
2009,06,04,04,14,14.60
2009,06,04,04,15,14.60
2009,06,04,04,16,14.60
2009,06,04,04,17,14.50
2009,06,04,04,18,14.50
2009,06,04,04,19,14.50
2009,06,04,04,20,14.50
2009,06,04,04,21,14.50
2009,06,04,04,22,14.50
2009,06,04,04,23,14.50
2009,06,04,04,24,14.50
2009,06,04,04,25,14.50
2009,06,04,04,26,14.40
2009,06,04,04,27,14.40
2009,06,04,04,28,14.40
2009,06,04,04,29,14.40
2009,06,04,04,30,14.40
2009,06,04,04,31,14.50
2009,06,04,04,32,14.50
2009,06,04,04,33,14.60
2009,06,04,04,34,14.60
2009,06,04,04,35,14.70
2009,06,04,04,36,14.80
2009,06,04,04,37,14.80
2009,06,04,04,38,14.90
2009,06,04,04,39,14.90
2009,06,04,04,40,15.00
2009,06,04,04,41,15.10
2009,06,04,04,42,15.10
2009,06,04,04,43,15.10
2009,06,04,04,44,15.20
2009,06,04,04,45,15.20
2009,06,04,04,46,15.20
2009,06,04,04,47,15.30
2009,06,04,04,48,15.30
2009,06,04,04,49,15.30
2009,06,04,04,50,15.30
2009,06,04,04,51,15.30
2009,06,04,04,52,15.30
2009,06,04,04,53,15.30
2009,06,04,04,54,15.30
2009,06,04,04,55,15.30
2009,06,04,04,56,15.30
2009,06,04,04,57,15.30
2009,06,04,04,58,15.20
2009,06,04,04,59,15.20
2009,06,04,05,00,15.20
2009,06,04,05,01,15.20
2009,06,04,05,02,15.20
2009,06,04,05,03,15.20
2009,06,04,05,04,15.10
2009,06,04,05,05,15.10
2009,06,04,05,06,15.10
2009,06,04,05,07,15.10
2009,06,04,05,08,15.00
2009,06,04,05,09,15.00
2009,06,04,05,10,15.00
2009,06,04,05,11,15.00
2009,06,04,05,12,14.90
2009,06,04,05,13,14.90
2009,06,04,05,14,14.90
2009,06,04,05,15,14.90
2009,06,04,05,16,14.80
2009,06,04,05,17,14.80
2009,06,04,05,18,14.80
2009,06,04,05,19,14.80
2009,06,04,05,20,14.80
2009,06,04,05,21,14.80
2009,06,04,05,22,14.80
2009,06,04,05,23,14.80
2009,06,04,05,24,14.80
2009,06,04,05,25,14.80
2009,06,04,05,26,14.80
2009,06,04,05,27,14.80
2009,06,04,05,28,14.80
2009,06,04,05,29,14.80
2009,06,04,05,30,14.80
2009,06,04,05,31,14.90
2009,06,04,05,32,14.90
2009,06,04,05,33,15.00
2009,06,04,05,34,15.00
2009,06,04,05,35,15.10
2009,06,04,05,36,15.20
2009,06,04,05,37,15.30
2009,06,04,05,38,15.30
2009,06,04,05,39,15.40
2009,06,04,05,40,15.50
2009,06,04,05,41,15.60
2009,06,04,05,42,15.70
2009,06,04,05,43,15.80
2009,06,04,05,44,16.00
2009,06,04,05,45,16.10
2009,06,04,05,46,16.20
2009,06,04,05,47,16.30
2009,06,04,05,48,16.40
2009,06,04,05,49,16.40
2009,06,04,05,50,16.50
2009,06,04,05,51,16.60
2009,06,04,05,52,16.70
2009,06,04,05,53,16.70
2009,06,04,05,54,16.70
2009,06,04,05,55,16.80
2009,06,04,05,56,16.80
2009,06,04,05,57,16.90
2009,06,04,05,58,16.90
2009,06,04,05,59,16.90
2009,06,04,06,00,16.90
2009,06,04,06,01,17.00
2009,06,04,06,02,17.00
2009,06,04,06,03,17.00
2009,06,04,06,04,17.10
2009,06,04,06,05,17.10
2009,06,04,06,06,17.10
2009,06,04,06,07,17.20
2009,06,04,06,08,17.20
2009,06,04,06,09,17.30
2009,06,04,06,10,17.30
2009,06,04,06,11,17.30
2009,06,04,06,12,17.30
2009,06,04,06,13,17.40
2009,06,04,06,14,17.40
2009,06,04,06,15,17.40
2009,06,04,06,16,17.40
2009,06,04,06,17,17.40
2009,06,04,06,18,17.50
2009,06,04,06,19,17.50
2009,06,04,06,20,17.50
2009,06,04,06,21,17.50
2009,06,04,06,22,17.50
2009,06,04,06,23,17.50
2009,06,04,06,24,17.50
2009,06,04,06,25,17.60
2009,06,04,06,26,17.60
2009,06,04,06,27,17.60
2009,06,04,06,28,17.60
2009,06,04,06,29,17.70
2009,06,04,06,30,17.70
2009,06,04,06,31,17.70
2009,06,04,06,32,17.80
2009,06,04,06,33,17.80
2009,06,04,06,34,17.80
2009,06,04,06,35,17.90
2009,06,04,06,36,17.90
2009,06,04,06,37,18.00
2009,06,04,06,38,18.10
2009,06,04,06,39,18.20
2009,06,04,06,40,18.20
2009,06,04,06,41,18.30
2009,06,04,06,42,18.30
2009,06,04,06,43,18.40
2009,06,04,06,44,18.40
2009,06,04,06,45,18.40
2009,06,04,06,46,18.40
2009,06,04,06,47,18.50
2009,06,04,06,48,18.50
2009,06,04,06,49,18.50
2009,06,04,06,50,18.50
2009,06,04,06,51,18.50
2009,06,04,06,52,18.60
2009,06,04,06,53,18.60
2009,06,04,06,54,18.70
2009,06,04,06,55,18.80
2009,06,04,06,56,18.80
2009,06,04,06,57,18.90
2009,06,04,06,58,18.90
2009,06,04,06,59,18.90
2009,06,04,07,00,18.90
2009,06,04,07,01,19.00
2009,06,04,07,02,19.10
2009,06,04,07,03,19.10
2009,06,04,07,04,19.20
2009,06,04,07,05,19.30
2009,06,04,07,06,19.40
2009,06,04,07,07,19.40
2009,06,04,07,08,19.50
2009,06,04,07,09,19.60
2009,06,04,07,10,19.60
2009,06,04,07,11,19.70
2009,06,04,07,12,19.70
2009,06,04,07,13,19.80
2009,06,04,07,14,19.90
2009,06,04,07,15,19.90
2009,06,04,07,16,19.90
2009,06,04,07,17,19.90
2009,06,04,07,18,19.90
2009,06,04,07,19,19.90
2009,06,04,07,20,20.00
2009,06,04,07,21,20.10
2009,06,04,07,22,20.10
2009,06,04,07,23,20.10
2009,06,04,07,24,20.10
2009,06,04,07,25,20.10
2009,06,04,07,26,20.20
2009,06,04,07,27,20.20
2009,06,04,07,28,20.20
2009,06,04,07,29,20.20
2009,06,04,07,30,20.30
2009,06,04,07,31,20.30
2009,06,04,07,32,20.30
2009,06,04,07,33,20.40
2009,06,04,07,34,20.40
2009,06,04,07,35,20.50
2009,06,04,07,36,20.50
2009,06,04,07,37,20.60
2009,06,04,07,38,20.60
2009,06,04,07,39,20.70
2009,06,04,07,40,20.70
2009,06,04,07,41,20.80
2009,06,04,07,42,20.80
2009,06,04,07,43,20.90
2009,06,04,07,44,20.90
2009,06,04,07,45,21.00
2009,06,04,07,46,21.10
2009,06,04,07,47,21.20
2009,06,04,07,48,21.20
2009,06,04,07,49,21.30
2009,06,04,07,50,21.30
2009,06,04,07,51,21.30
2009,06,04,07,52,21.40
2009,06,04,07,53,21.40
2009,06,04,07,54,21.50
2009,06,04,07,55,21.60
2009,06,04,07,56,21.60
2009,06,04,07,57,21.60
2009,06,04,07,58,21.70
2009,06,04,07,59,21.70
2009,06,04,08,00,21.80
2009,06,04,08,01,21.90
2009,06,04,08,02,21.90
2009,06,04,08,03,22.00
2009,06,04,08,04,22.00
2009,06,04,08,05,22.10
2009,06,04,08,06,22.20
2009,06,04,08,07,22.20
2009,06,04,08,08,22.30
2009,06,04,08,09,22.30
2009,06,04,08,10,22.40
2009,06,04,08,11,22.40
2009,06,04,08,12,22.50
2009,06,04,08,13,22.50
2009,06,04,08,14,22.60
2009,06,04,08,15,22.70
2009,06,04,08,16,22.70
2009,06,04,08,17,22.80
2009,06,04,08,18,22.80
2009,06,04,08,19,22.80
2009,06,04,08,20,22.90
2009,06,04,08,21,22.90
2009,06,04,08,22,22.90
2009,06,04,08,23,23.10
2009,06,04,08,24,23.10
2009,06,04,08,25,23.10
2009,06,04,08,26,23.20
2009,06,04,08,27,23.30
2009,06,04,08,28,23.30
2009,06,04,08,29,23.30
2009,06,04,08,30,23.40
2009,06,04,08,31,23.40
2009,06,04,08,32,23.40
2009,06,04,08,33,23.40
2009,06,04,08,34,23.40
2009,06,04,08,35,23.40
2009,06,04,08,36,23.40
2009,06,04,08,37,23.40
2009,06,04,08,38,23.40
2009,06,04,08,39,23.50
2009,06,04,08,40,23.60
2009,06,04,08,41,23.60
2009,06,04,08,42,23.60
2009,06,04,08,43,23.70
2009,06,04,08,44,23.70
2009,06,04,08,45,23.70
2009,06,04,08,46,23.70
2009,06,04,08,47,23.70
2009,06,04,08,48,23.70
2009,06,04,08,49,23.70
2009,06,04,08,50,23.70
2009,06,04,08,51,23.70
2009,06,04,08,52,23.70
2009,06,04,08,53,23.70
2009,06,04,08,54,23.70
2009,06,04,08,55,23.70
2009,06,04,08,56,23.80
2009,06,04,08,57,23.80
2009,06,04,08,58,23.90
2009,06,04,08,59,23.90
2009,06,04,09,00,23.90
2009,06,04,09,01,23.90
2009,06,04,09,02,23.90
2009,06,04,09,03,23.80
2009,06,04,09,04,23.80
2009,06,04,09,05,23.80
2009,06,04,09,06,23.90
2009,06,04,09,07,24.00
2009,06,04,09,08,24.10
2009,06,04,09,09,24.20
2009,06,04,09,10,24.30
2009,06,04,09,11,24.30
2009,06,04,09,12,24.40
2009,06,04,09,13,24.50
2009,06,04,09,14,24.60
2009,06,04,09,15,24.70
2009,06,04,09,16,24.70
2009,06,04,09,17,24.70
2009,06,04,09,18,24.70
2009,06,04,09,19,24.70
2009,06,04,09,20,24.60
2009,06,04,09,21,24.60
2009,06,04,09,22,24.70
2009,06,04,09,23,24.70
2009,06,04,09,24,24.80
2009,06,04,09,25,24.80
2009,06,04,09,26,24.90
2009,06,04,09,27,24.90
2009,06,04,09,28,24.90
2009,06,04,09,29,25.00
2009,06,04,09,30,25.00
2009,06,04,09,31,25.10
2009,06,04,09,32,25.10
2009,06,04,09,33,25.10
2009,06,04,09,34,25.10
2009,06,04,09,35,25.10
2009,06,04,09,36,25.10
2009,06,04,09,37,25.10
2009,06,04,09,38,25.00
2009,06,04,09,39,25.00
2009,06,04,09,40,24.90
2009,06,04,09,41,24.80
2009,06,04,09,42,24.80
2009,06,04,09,43,24.70
2009,06,04,09,44,24.70
2009,06,04,09,45,24.70
2009,06,04,09,46,24.80
2009,06,04,09,47,24.80
2009,06,04,09,48,24.90
2009,06,04,09,49,24.90
2009,06,04,09,50,25.00
2009,06,04,09,51,25.00
2009,06,04,09,52,25.10
2009,06,04,09,53,25.20
2009,06,04,09,54,25.20
2009,06,04,09,55,25.30
2009,06,04,09,56,25.30
2009,06,04,09,57,25.40
2009,06,04,09,58,25.50
2009,06,04,09,59,25.50
2009,06,04,10,00,25.50
2009,06,04,10,01,25.50
2009,06,04,10,02,25.50
2009,06,04,10,03,25.50
2009,06,04,10,04,25.50
2009,06,04,10,05,25.40
2009,06,04,10,06,25.40
2009,06,04,10,07,25.30
2009,06,04,10,08,25.30
2009,06,04,10,09,25.20
2009,06,04,10,10,25.20
2009,06,04,10,11,25.20
2009,06,04,10,12,25.20
2009,06,04,10,13,25.10
2009,06,04,10,14,25.10
2009,06,04,10,15,25.10
2009,06,04,10,16,25.20
2009,06,04,10,17,25.20
2009,06,04,10,18,25.20
2009,06,04,10,19,25.30
2009,06,04,10,20,25.40
2009,06,04,10,21,25.40
2009,06,04,10,22,25.50
2009,06,04,10,23,25.50
2009,06,04,10,24,25.60
2009,06,04,10,25,25.50
2009,06,04,10,26,25.50
2009,06,04,10,27,25.40
2009,06,04,10,28,25.40
2009,06,04,10,29,25.40
2009,06,04,10,30,25.40
2009,06,04,10,31,25.40
2009,06,04,10,32,25.40
2009,06,04,10,33,25.50
2009,06,04,10,34,25.50
2009,06,04,10,35,25.60
2009,06,04,10,36,25.60
2009,06,04,10,37,25.60
2009,06,04,10,38,25.60
2009,06,04,10,39,25.60
2009,06,04,10,40,25.60
2009,06,04,10,41,25.60
2009,06,04,10,42,25.60
2009,06,04,10,43,25.60
2009,06,04,10,44,25.70
2009,06,04,10,45,25.70
2009,06,04,10,46,25.70
2009,06,04,10,47,25.80
2009,06,04,10,48,25.80
2009,06,04,10,49,25.90
2009,06,04,10,50,25.90
2009,06,04,10,51,25.90
2009,06,04,10,52,26.00
2009,06,04,10,53,26.00
2009,06,04,10,54,25.90
2009,06,04,10,55,25.90
2009,06,04,10,56,26.00
2009,06,04,10,57,26.10
2009,06,04,10,58,26.20
2009,06,04,10,59,26.20
2009,06,04,11,00,26.20
2009,06,04,11,01,26.20
2009,06,04,11,02,26.30
2009,06,04,11,03,26.30
2009,06,04,11,04,26.30
2009,06,04,11,05,26.30
2009,06,04,11,06,26.40
2009,06,04,11,07,26.50
2009,06,04,11,08,26.60
2009,06,04,11,09,26.60
2009,06,04,11,10,26.60
2009,06,04,11,11,26.70
2009,06,04,11,12,26.70
2009,06,04,11,13,26.70
2009,06,04,11,14,26.70
2009,06,04,11,15,26.70
2009,06,04,11,16,26.70
2009,06,04,11,17,26.70
2009,06,04,11,18,26.70
2009,06,04,11,19,26.80
2009,06,04,11,20,26.80
2009,06,04,11,21,26.90
2009,06,04,11,22,27.00
2009,06,04,11,23,27.10
2009,06,04,11,24,27.10
2009,06,04,11,25,27.10
2009,06,04,11,26,27.00
2009,06,04,11,27,26.50
2009,06,04,11,28,25.90
2009,06,04,11,29,25.30
2009,06,04,11,30,24.80
2009,06,04,11,31,24.40
2009,06,04,11,32,24.10
2009,06,04,11,33,23.80
2009,06,04,11,34,23.70
2009,06,04,11,35,23.60
2009,06,04,11,36,23.60
2009,06,04,11,37,23.60
2009,06,04,11,38,23.60
2009,06,04,11,39,23.60
2009,06,04,11,40,23.70
2009,06,04,11,41,23.70
2009,06,04,11,42,23.80
2009,06,04,11,43,23.80
2009,06,04,11,44,23.70
2009,06,04,11,45,23.60
2009,06,04,11,46,23.40
2009,06,04,11,47,23.30
2009,06,04,11,48,23.30
2009,06,04,11,49,23.30
2009,06,04,11,50,23.50
2009,06,04,11,51,23.70
2009,06,04,11,52,23.70
2009,06,04,11,53,23.70
2009,06,04,11,54,23.70
2009,06,04,11,55,23.70
2009,06,04,11,56,23.70
2009,06,04,11,57,23.90
2009,06,04,11,58,24.10
2009,06,04,11,59,24.10
2009,06,04,12,00,24.10
2009,06,04,12,01,24.00
2009,06,04,12,02,23.90
2009,06,04,12,03,24.00
2009,06,04,12,04,24.10
2009,06,04,12,05,24.00
2009,06,04,12,06,23.80
2009,06,04,12,07,23.80
2009,06,04,12,08,23.70
2009,06,04,12,09,23.70
2009,06,04,12,10,23.70
2009,06,04,12,11,23.80
2009,06,04,12,12,23.80
2009,06,04,12,13,23.90
2009,06,04,12,14,24.00
2009,06,04,12,15,24.00
2009,06,04,12,16,23.90
2009,06,04,12,17,23.80
2009,06,04,12,18,23.80
2009,06,04,12,19,23.80
2009,06,04,12,20,23.80
2009,06,04,12,21,23.70
2009,06,04,12,22,23.70
2009,06,04,12,23,24.00
2009,06,04,12,24,24.30
2009,06,04,12,25,24.40
2009,06,04,12,26,24.40
2009,06,04,12,27,24.50
2009,06,04,12,28,24.50
2009,06,04,12,29,24.50
2009,06,04,12,30,24.60
2009,06,04,12,31,24.70
2009,06,04,12,32,24.60
2009,06,04,12,33,24.60
2009,06,04,12,34,24.50
2009,06,04,12,35,24.40
2009,06,04,12,36,24.40
2009,06,04,12,37,24.50
2009,06,04,12,38,24.70
2009,06,04,12,39,24.90
2009,06,04,12,40,24.90
2009,06,04,12,41,25.20
2009,06,04,12,42,25.40
2009,06,04,12,43,25.60
2009,06,04,12,44,25.80
2009,06,04,12,45,25.90
2009,06,04,12,46,26.10
2009,06,04,12,47,26.20
2009,06,04,12,48,26.40
2009,06,04,12,49,26.60
2009,06,04,12,50,26.80
2009,06,04,12,51,27.10
2009,06,04,12,52,27.40
2009,06,04,12,53,27.70
2009,06,04,12,54,28.00
2009,06,04,12,55,28.20
2009,06,04,12,56,28.30
2009,06,04,12,57,28.40
2009,06,04,12,58,28.40
2009,06,04,12,59,28.50
2009,06,04,13,00,28.50
2009,06,04,13,01,28.50
2009,06,04,13,02,28.60
2009,06,04,13,03,28.60
2009,06,04,13,04,28.60
2009,06,04,13,05,28.60
2009,06,04,13,06,28.60
2009,06,04,13,07,28.70
2009,06,04,13,08,28.80
2009,06,04,13,09,28.90
2009,06,04,13,10,28.90
2009,06,04,13,11,28.90
2009,06,04,13,12,28.90
2009,06,04,13,13,28.90
2009,06,04,13,14,28.90
2009,06,04,13,15,28.90
2009,06,04,13,16,28.90
2009,06,04,13,17,29.00
2009,06,04,13,18,29.10
2009,06,04,13,19,29.10
2009,06,04,13,20,29.20
2009,06,04,13,21,29.20
2009,06,04,13,22,29.30
2009,06,04,13,23,29.40
2009,06,04,13,24,29.40
2009,06,04,13,25,29.50
2009,06,04,13,26,29.50
2009,06,04,13,27,29.60
2009,06,04,13,28,29.60
2009,06,04,13,29,29.70
2009,06,04,13,30,29.70
2009,06,04,13,31,29.70
2009,06,04,13,32,29.70
2009,06,04,13,33,29.70
2009,06,04,13,34,29.60
2009,06,04,13,35,29.70
2009,06,04,13,36,29.70
2009,06,04,13,37,29.80
2009,06,04,13,38,29.90
2009,06,04,13,39,30.00
2009,06,04,13,40,30.10
2009,06,04,13,41,30.10
2009,06,04,13,42,30.10
2009,06,04,13,43,30.00
2009,06,04,13,44,29.90
2009,06,04,13,45,29.90
2009,06,04,13,46,30.00
2009,06,04,13,47,30.10
2009,06,04,13,48,30.00
2009,06,04,13,49,29.90
2009,06,04,13,50,29.80
2009,06,04,13,51,29.90
2009,06,04,13,52,29.90
2009,06,04,13,53,29.90
2009,06,04,13,54,30.00
2009,06,04,13,55,30.10
2009,06,04,13,56,30.10
2009,06,04,13,57,30.10
2009,06,04,13,58,30.10
2009,06,04,13,59,30.10
2009,06,04,14,00,30.10
2009,06,04,14,01,30.10
2009,06,04,14,02,30.10
2009,06,04,14,03,30.10
2009,06,04,14,04,30.20
2009,06,04,14,05,30.20
2009,06,04,14,06,30.30
2009,06,04,14,07,30.30
2009,06,04,14,08,30.40
2009,06,04,14,09,30.50
2009,06,04,14,10,30.60
2009,06,04,14,11,30.60
2009,06,04,14,12,30.60
2009,06,04,14,13,30.70
2009,06,04,14,14,30.80
2009,06,04,14,15,31.00
2009,06,04,14,16,31.10
2009,06,04,14,17,31.10
2009,06,04,14,18,31.10
2009,06,04,14,19,31.10
2009,06,04,14,20,31.00
2009,06,04,14,21,30.90
2009,06,04,14,22,30.90
2009,06,04,14,23,30.90
2009,06,04,14,24,30.80
2009,06,04,14,25,30.80
2009,06,04,14,26,30.80
2009,06,04,14,27,30.80
2009,06,04,14,28,30.90
2009,06,04,14,29,30.90
2009,06,04,14,30,30.80
2009,06,04,14,31,30.80
2009,06,04,14,32,30.80
2009,06,04,14,33,30.80
2009,06,04,14,34,30.90
2009,06,04,14,35,31.00
2009,06,04,14,36,31.10
2009,06,04,14,37,31.10
2009,06,04,14,38,31.10
2009,06,04,14,39,31.00
2009,06,04,14,40,31.00
2009,06,04,14,41,31.00
2009,06,04,14,42,31.00
2009,06,04,14,43,31.00
2009,06,04,14,44,30.90
2009,06,04,14,45,31.00
2009,06,04,14,46,30.90
2009,06,04,14,47,31.00
2009,06,04,14,48,31.00
2009,06,04,14,49,31.10
2009,06,04,14,50,31.10
2009,06,04,14,51,31.20
2009,06,04,14,52,31.20
2009,06,04,14,53,31.20
2009,06,04,14,54,31.20
2009,06,04,14,55,31.20
2009,06,04,14,56,31.20
2009,06,04,14,57,31.10
2009,06,04,14,58,31.00
2009,06,04,14,59,31.00
2009,06,04,15,00,31.00
2009,06,04,15,01,30.90
2009,06,04,15,02,30.90
2009,06,04,15,03,31.00
2009,06,04,15,04,31.10
2009,06,04,15,05,31.10
2009,06,04,15,06,31.10
2009,06,04,15,07,31.10
2009,06,04,15,08,31.10
2009,06,04,15,09,31.10
2009,06,04,15,10,31.10
2009,06,04,15,11,31.10
2009,06,04,15,12,31.10
2009,06,04,15,13,31.10
2009,06,04,15,14,31.10
2009,06,04,15,15,31.20
2009,06,04,15,16,31.20
2009,06,04,15,17,31.20
2009,06,04,15,18,31.20
2009,06,04,15,19,31.10
2009,06,04,15,20,31.10
2009,06,04,15,21,31.10
2009,06,04,15,22,31.00
2009,06,04,15,23,31.00
2009,06,04,15,24,31.00
2009,06,04,15,25,31.10
2009,06,04,15,26,31.10
2009,06,04,15,27,31.20
2009,06,04,15,28,31.30
2009,06,04,15,29,31.40
2009,06,04,15,30,31.50
2009,06,04,15,31,31.60
2009,06,04,15,32,31.70
2009,06,04,15,33,31.70
2009,06,04,15,34,31.80
2009,06,04,15,35,31.80
2009,06,04,15,36,31.80
2009,06,04,15,37,31.80
2009,06,04,15,38,31.80
2009,06,04,15,39,31.80
2009,06,04,15,40,31.60
2009,06,04,15,41,31.50
2009,06,04,15,42,31.40
2009,06,04,15,43,31.30
2009,06,04,15,44,31.30
2009,06,04,15,45,31.30
2009,06,04,15,46,31.30
2009,06,04,15,47,31.40
2009,06,04,15,48,31.40
2009,06,04,15,49,31.40
2009,06,04,15,50,31.60
2009,06,04,15,51,31.60
2009,06,04,15,52,31.50
2009,06,04,15,53,31.40
2009,06,04,15,54,31.30
2009,06,04,15,55,31.30
2009,06,04,15,56,31.40
2009,06,04,15,57,31.50
2009,06,04,15,58,31.60
2009,06,04,15,59,31.60
2009,06,04,16,00,31.60
2009,06,04,16,01,31.60
2009,06,04,16,02,31.60
2009,06,04,16,03,31.60
2009,06,04,16,04,31.60
2009,06,04,16,05,31.60
2009,06,04,16,06,31.70
2009,06,04,16,07,31.70
2009,06,04,16,08,31.80
2009,06,04,16,09,31.70
2009,06,04,16,10,31.70
2009,06,04,16,11,31.70
2009,06,04,16,12,31.80
2009,06,04,16,13,31.70
2009,06,04,16,14,31.70
2009,06,04,16,15,31.60
2009,06,04,16,16,31.60
2009,06,04,16,17,31.60
2009,06,04,16,18,31.50
2009,06,04,16,19,31.40
2009,06,04,16,20,31.40
2009,06,04,16,21,31.40
2009,06,04,16,22,31.40
2009,06,04,16,23,31.40
2009,06,04,16,24,31.50
2009,06,04,16,25,31.60
2009,06,04,16,26,31.60
2009,06,04,16,27,31.60
2009,06,04,16,28,31.60
2009,06,04,16,29,31.70
2009,06,04,16,30,31.70
2009,06,04,16,31,31.70
2009,06,04,16,32,31.70
2009,06,04,16,33,31.70
2009,06,04,16,34,31.70
2009,06,04,16,35,31.70
2009,06,04,16,36,31.60
2009,06,04,16,37,31.50
2009,06,04,16,38,31.40
2009,06,04,16,39,31.30
2009,06,04,16,40,31.40
2009,06,04,16,41,31.40
2009,06,04,16,42,31.40
2009,06,04,16,43,31.40
2009,06,04,16,44,31.40
2009,06,04,16,45,31.50
2009,06,04,16,46,31.60
2009,06,04,16,47,31.60
2009,06,04,16,48,31.60
2009,06,04,16,49,31.60
2009,06,04,16,50,31.50
2009,06,04,16,51,31.40
2009,06,04,16,52,31.40
2009,06,04,16,53,31.40
2009,06,04,16,54,31.50
2009,06,04,16,55,31.60
2009,06,04,16,56,31.50
2009,06,04,16,57,31.40
2009,06,04,16,58,31.40
2009,06,04,16,59,31.40
2009,06,04,17,00,31.60
2009,06,04,17,01,31.60
2009,06,04,17,02,31.60
2009,06,04,17,03,31.60
2009,06,04,17,04,31.60
2009,06,04,17,05,31.60
2009,06,04,17,06,31.70
2009,06,04,17,07,31.70
2009,06,04,17,08,31.70
2009,06,04,17,09,31.70
2009,06,04,17,10,31.70
2009,06,04,17,11,31.80
2009,06,04,17,12,31.80
2009,06,04,17,13,31.90
2009,06,04,17,14,31.90
2009,06,04,17,15,32.10
2009,06,04,17,16,32.10
2009,06,04,17,17,32.20
2009,06,04,17,18,32.30
2009,06,04,17,19,32.30